Wind_Speed
45 44 43 43 42 42 42 41 40 39 38 37 36 35 35 35 35 35 35 35 35 36 37 37 37 37 37 36 35 34 34 34 37 41 43 45 46 47 46 45 44 42 40 40 39 39 38 36 34 33 33 34 34 35 36 37 38 38 39 40 41 41 41 42 42 42 42 42 43
45 45 44 43 43 42 42 41 40 40 38 37 36 36 35 35 35 35 35 35 36 36 36 36 36 36 37 36 35 34 33 34 36 39 42 44 46 46 46 45 43 41 39 39 39 39 38 37 35 34 33 33 33 34 35 36 37 37 37 38 39 39 40 41 42 43 43 44 44
46 45 44 44 43 43 42 41 41 40 39 38 37 36 36 35 35 35 35 35 35 35 35 35 35 36 36 35 34 33 33 33 35 38 41 44 45 46 45 44 42 40 39 39 39 40 39 38 36 34 33 33 33 33 35 36 36 36 37 37 37 38 40 41 43 44 45 45 44
46 45 45 44 44 44 43 42 41 41 40 39 37 36 36 35 35 35 35 35 35 35 35 35 35 35 34 34 33 32 32 32 33 36 41 43 44 44 44 43 42 40 39 39 40 40 40 38 37 35 33 33 33 33 34 35 35 36 36 36 36 38 40 42 44 45 46 46 45
44 44 45 45 45 45 44 43 42 41 40 39 38 37 36 35 35 35 35 35 35 36 36 35 34 34 33 32 31 31 31 31 31 34 39 43 44 43 43 42 42 41 41 41 41 41 40 38 37 35 34 33 33 33 34 35 36 36 36 37 37 38 40 42 44 46 46 46 45
36 39 42 44 45 45 44 44 43 42 41 40 38 37 36 36 36 36 36 36 36 36 36 36 34 33 32 31 30 29 29 30 32 34 37 41 43 44 43 43 42 42 43 43 43 42 40 38 37 35 34 33 33 34 34 35 37 38 38 38 38 38 40 42 44 46 46 46 46
26 29 34 39 43 44 44 43 43 42 41 40 39 38 37 36 36 36 36 36 36 36 36 36 35 34 32 30 29 28 28 30 32 36 39 41 42 43 43 43 43 44 44 45 44 42 40 38 36 35 34 33 33 34 35 36 37 38 39 39 39 39 40 42 44 44 45 45 45
23 23 26 31 37 41 43 43 42 41 41 40 39 39 38 37 36 36 36 36 36 36 36 36 35 34 32 30 29 28 28 29 33 38 42 44 43 42 41 42 44 45 45 45 43 41 39 38 36 35 34 33 33 34 35 35 36 37 38 39 39 39 40 41 42 43 44 44 45
23 24 24 24 28 35 40 42 42 41 41 40 40 39 38 37 36 36 36 36 36 36 36 36 35 34 32 31 29 28 28 29 33 38 42 44 44 42 41 41 43 45 44 43 42 40 38 37 36 35 35 34 33 33 34 35 36 36 36 37 38 39 39 39 39 40 42 43 44
21 25 26 25 24 27 34 39 41 41 41 40 39 38 38 37 36 36 36 36 36 36 35 35 35 34 32 31 30 28 28 29 32 36 40 41 42 42 43 44 45 45 44 42 40 38 37 36 36 36 35 34 33 33 33 34 35 35 35 35 36 37 39 39 40 40 41 42 44
15 21 25 26 24 23 27 33 38 40 40 39 39 38 37 36 35 35 35 35 35 35 35 35 34 33 32 31 30 29 28 29 31 34 37 38 39 40 42 44 44 44 43 41 39 38 37 36 36 36 36 35 33 32 32 33 34 34 34 34 34 36 38 39 40 41 41 42 43
14 16 21 24 24 23 24 28 33 37 38 38 37 36 36 35 35 35 35 35 35 35 35 35 34 33 32 32 31 30 29 29 30 32 34 36 37 38 39 40 41 41 40 40 39 38 37 37 37 37 37 36 34 32 32 33 33 34 34 33 33 35 36 38 39 40 41 42 42
17 16 17 20 22 23 23 25 28 33 36 36 35 35 34 34 34 34 34 34 34 34 34 34 34 33 33 32 32 31 30 30 31 31 32 33 35 36 37 37 38 38 38 39 39 38 38 37 37 37 37 36 35 33 32 32 33 33 33 33 34 34 35 36 38 39 40 41 42
18 17 16 17 19 22 23 24 26 29 32 34 34 34 33 33 33 33 34 34 34 34 34 34 34 33 33 33 33 32 31 30 31 31 31 31 32 34 35 36 37 37 38 39 39 38 38 37 37 38 38 37 36 34 32 31 31 32 33 33 34 34 34 35 36 37 38 39 39
20 19 17 17 18 20 22 24 25 27 29 32 33 33 33 32 32 32 33 34 34 34 34 34 34 34 34 34 33 32 31 31 31 31 30 30 31 32 34 35 36 37 38 38 38 38 37 37 37 38 38 38 37 35 32 29 29 30 32 33 34 35 35 35 35 35 35 35 36
21 20 18 17 18 20 22 24 25 26 27 31 33 33 32 32 32 32 33 33 34 34 34 34 34 34 34 34 34 33 32 32 31 31 31 31 32 33 35 37 37 37 38 38 37 37 37 37 37 37 38 37 36 34 31 28 28 29 31 33 34 35 36 36 35 34 33 32 32
22 20 19 17 18 19 21 23 25 26 27 29 32 33 33 32 32 32 33 33 34 34 34 34 34 34 34 35 34 34 33 33 32 32 32 32 33 35 37 38 38 37 36 36 36 36 37 37 37 37 36 36 34 32 30 28 28 29 30 33 35 36 37 36 35 33 32 31 31
23 21 19 17 17 19 22 23 25 27 27 28 32 33 33 33 33 33 33 33 34 34 34 34 33 34 34 35 35 34 34 33 33 34 34 34 34 35 36 37 37 36 35 34 34 34 34 35 35 35 35 33 32 31 30 29 29 29 30 32 35 36 37 36 35 33 32 31 31
23 22 20 18 17 19 22 24 26 27 28 29 32 34 34 34 33 33 34 34 34 34 34 33 33 33 34 34 34 34 34 33 34 35 36 35 34 33 33 33 33 34 33 32 31 30 30 31 32 33 33 32 31 31 30 30 29 30 31 32 34 35 36 35 33 32 32 31 31
23 22 21 19 19 20 22 25 26 27 28 30 33 35 35 34 34 34 34 34 34 34 34 33 33 33 33 34 34 34 33 33 34 35 36 34 32 30 29 30 31 33 33 31 28 26 26 27 29 30 30 30 30 30 30 30 30 31 32 33 33 33 33 32 32 31 31 31 31
24 22 20 19 20 21 24 25 26 27 28 30 33 35 35 35 35 35 35 35 34 34 33 32 33 33 34 33 33 33 33 33 33 34 35 33 30 28 28 29 31 32 31 28 25 24 24 26 27 28 29 29 29 29 30 31 32 33 33 32 31 31 30 30 30 30 30 30 31
24 22 20 18 19 21 23 26 27 27 27 28 31 33 34 34 35 35 35 35 34 33 32 32 32 33 33 33 33 33 33 33 32 33 34 32 30 29 29 31 31 30 28 25 24 24 24 26 27 28 29 28 29 29 31 32 33 32 31 30 29 29 28 28 28 28 28 29 29
25 23 20 18 17 19 22 25 26 26 25 25 28 31 33 33 34 34 34 34 33 32 31 31 32 33 33 32 33 34 34 33 33 33 33 33 32 32 32 32 30 27 25 23 22 23 25 27 30 30 30 30 30 31 32 32 31 29 28 27 27 27 27 27 27 27 27 28 28
24 22 20 17 16 17 20 22 23 24 25 25 27 30 32 32 33 34 34 33 32 32 31 32 33 32 31 32 33 34 35 34 34 34 33 32 32 32 32 30 27 24 22 21 21 23 26 30 33 34 32 31 31 31 30 29 27 25 25 24 25 25 26 26 27 27 28 29 29
23 21 18 16 16 17 19 21 22 24 26 26 26 29 31 32 33 34 34 33 32 32 32 33 33 31 30 32 34 35 35 36 36 35 32 30 30 30 29 26 24 23 22 21 21 22 25 30 33 33 32 30 29 28 26 25 24 23 23 24 25 26 28 29 29 29 30 29 29
22 19 17 15 15 16 18 20 22 25 26 26 25 27 30 33 34 34 33 32 32 32 33 33 32 31 31 32 34 35 36 36 35 32 29 27 27 28 26 24 23 23 23 23 23 23 25 27 28 28 28 27 25 24 24 24 24 25 26 27 28 29 30 31 31 30 29 28 27
22 19 17 16 15 16 18 20 23 24 25 25 24 27 31 33 35 34 33 32 32 32 32 33 32 32 32 33 34 35 35 35 31 28 26 25 26 26 26 25 25 25 25 25 25 24 23 24 24 24 24 24 24 25 26 27 28 29 29 29 29 29 28 28 27 26 25 23 21
22 20 18 17 17 17 18 21 23 24 25 25 25 28 32 34 35 34 33 32 31 31 32 33 33 33 33 33 33 33 33 30 27 25 24 24 25 26 27 27 27 27 27 27 26 25 24 23 23 24 24 26 27 28 29 29 29 28 27 26 25 24 24 23 21 20 18 16 14
23 22 20 19 19 19 20 21 23 24 26 27 26 27 32 35 35 34 33 32 31 31 32 33 34 34 34 33 32 31 29 26 24 23 22 23 25 26 27 28 29 29 29 29 28 27 27 26 26 27 28 29 29 30 29 28 27 26 25 24 23 22 22 20 19 17 15 13 11
24 23 21 20 20 20 21 22 23 24 25 26 26 26 30 34 35 34 33 32 31 31 32 34 35 35 33 30 29 28 26 25 23 23 23 25 26 27 29 30 30 30 29 29 29 29 30 30 30 30 30 30 30 30 29 28 27 25 24 23 22 22 21 20 18 17 15 14 13
24 23 23 21 20 20 21 22 23 23 24 25 26 25 28 34 35 35 33 33 32 32 33 34 35 33 30 26 26 26 26 25 25 25 26 27 27 28 29 30 30 29 28 28 28 29 30 30 31 31 31 30 28 27 27 26 25 24 23 22 21 21 20 19 18 17 16 16 16
25 24 23 22 21 20 21 22 23 24 24 25 25 25 28 34 36 35 34 34 34 33 33 33 31 28 24 23 25 26 27 27 28 29 29 28 28 29 30 30 29 28 27 26 26 26 27 27 28 29 29 28 26 25 25 24 24 23 22 21 21 20 19 18 17 16 16 17 18
25 25 24 23 21 20 19 20 22 23 24 24 26 26 29 35 37 36 34 34 34 33 31 29 27 25 24 26 28 30 30 30 30 30 30 29 29 29 30 30 29 27 26 25 24 24 24 24 25 25 25 24 24 23 23 23 22 22 21 20 20 19 18 18 17 17 17 17 18
26 25 25 23 21 19 18 18 19 20 22 23 25 27 30 36 38 36 33 31 30 30 29 28 27 27 28 31 32 32 31 31 31 31 30 29 28 28 29 30 28 26 24 23 23 22 22 22 22 22 22 22 22 22 22 22 21 21 20 20 19 19 18 18 17 17 17 17 17
27 26 25 24 21 18 16 16 17 18 19 20 24 27 29 33 36 35 32 29 29 29 29 29 30 32 33 34 33 32 32 32 32 32 31 29 28 28 28 29 28 26 24 23 22 22 22 22 22 22 22 23 23 23 23 22 22 21 20 19 19 18 18 18 18 18 18 17 17
27 26 25 24 21 19 17 16 15 15 16 17 21 27 31 33 33 33 31 29 29 29 30 31 34 36 37 36 34 33 33 34 33 32 31 29 28 27 27 27 27 26 25 24 23 23 22 22 22 22 22 23 24 24 23 23 22 21 20 20 19 19 19 19 19 19 19 18 18
25 24 23 23 21 19 17 15 15 14 14 15 20 26 31 33 31 31 31 30 30 31 32 35 38 40 38 37 36 35 34 34 34 33 31 29 28 27 26 26 26 26 26 25 24 23 22 22 22 22 23 23 24 24 23 23 22 21 21 20 20 19 20 20 21 20 20 19 19
23 21 21 21 21 19 17 15 15 15 15 17 21 25 28 30 30 30 31 32 33 34 36 39 41 41 39 37 37 36 35 34 34 33 31 29 28 27 27 27 27 27 26 25 24 22 22 21 21 21 22 23 23 23 23 23 22 22 21 20 20 20 20 21 20 19 19 19 19
21 19 18 18 18 18 15 13 16 18 18 19 22 24 26 28 30 31 33 35 37 39 41 43 42 41 39 37 37 37 37 36 35 33 31 30 29 28 27 28 28 27 26 25 23 22 21 20 20 20 21 22 22 23 23 22 22 21 21 20 20 19 19 18 18 17 17 17 16
20 19 17 16 16 15 14 13 14 15 17 20 23 26 27 29 31 33 36 38 39 41 43 44 42 41 39 38 38 38 37 37 36 34 33 31 30 29 29 29 29 28 26 24 23 21 20 19 19 19 19 20 21 21 21 21 20 20 19 18 17 16 15 14 14 14 14 14 13
21 20 18 16 14 13 13 14 13 14 17 22 25 27 29 32 34 37 39 42 43 43 43 43 42 41 40 39 37 37 37 37 37 36 35 33 32 31 31 31 30 28 26 24 22 20 19 19 18 18 18 18 18 18 18 18 17 17 16 15 14 14 13 13 13 13 13 13 13
Wind_Direction
219 218 218 218 218 218 219 219 219 219 218 218 218 217 217 217 217 218 218 219 219 221 224 225 224 222 221 221 223 223 222 218 213 213 216 221 222 220 218 217 218 219 221 221 222 225 227 228 226 222 220 219 220 220 222 222 223 224 224 225 225 226 227 227 226 225 225 225 225
219 218 218 218 218 218 218 219 219 218 218 218 218 218 218 217 218 218 218 219 220 222 224 225 225 223 222 222 223 224 223 221 216 214 216 220 221 220 218 217 217 219 220 220 220 223 225 228 227 225 222 220 220 220 222 223 223 224 224 225 226 227 228 228 228 228 227 226 225
218 217 217 217 217 217 217 217 218 218 217 218 218 218 218 217 217 218 219 220 221 221 223 224 225 224 223 223 224 224 224 223 219 216 216 219 220 219 217 217 218 220 221 221 221 223 225 227 228 227 224 222 221 221 222 223 223 224 224 225 226 228 229 229 229 229 228 226 224
217 216 216 216 216 217 217 217 217 217 217 217 218 218 218 217 217 218 219 220 221 221 221 224 225 225 223 223 224 225 225 225 221 217 216 218 219 218 217 218 221 223 223 222 222 223 225 226 228 229 227 224 223 222 223 223 223 224 225 226 227 228 229 230 230 229 227 225 224
217 216 215 215 216 217 217 218 218 217 217 217 217 217 217 217 217 218 219 219 220 221 222 223 224 224 223 222 223 224 225 225 223 219 217 217 219 219 220 222 225 226 225 222 221 222 224 226 228 230 229 226 224 224 224 225 225 225 226 226 228 229 230 230 230 229 228 226 226
218 217 216 216 216 217 217 217 218 217 217 216 215 215 215 216 216 216 217 219 220 221 222 223 223 224 223 222 222 223 223 223 224 222 218 217 218 221 225 227 226 225 224 222 221 221 223 226 229 231 230 227 224 223 225 226 227 226 226 226 227 229 230 230 230 229 229 228 227
226 222 220 218 217 217 216 217 217 217 216 215 214 214 215 215 215 216 218 219 220 221 220 220 221 222 222 220 220 221 221 221 222 221 219 217 217 219 223 227 226 224 221 219 219 220 222 226 229 231 231 228 224 223 224 226 227 227 226 226 227 229 230 229 230 230 229 228 228
243 236 230 225 221 219 217 216 216 216 215 214 213 214 214 215 215 216 217 219 219 219 219 218 219 220 220 219 219 219 219 218 218 218 217 216 216 217 219 221 223 221 218 217 217 219 222 227 230 231 231 228 225 223 223 224 226 226 227 227 228 229 230 230 230 230 230 229 229
257 250 245 238 230 223 219 218 217 216 214 213 213 213 214 215 215 216 216 217 218 218 218 217 217 218 219 219 219 219 218 216 216 215 215 214 214 215 217 218 219 218 217 217 218 221 224 228 231 232 231 229 226 224 223 224 225 226 227 227 228 229 229 230 230 231 230 229 228
266 258 253 247 241 231 223 220 218 216 215 213 213 213 213 214 215 215 216 217 218 217 216 215 216 216 217 219 220 220 219 216 214 214 215 214 213 213 214 215 216 216 217 218 220 223 226 228 230 231 231 230 227 224 223 224 225 226 227 228 228 228 229 229 230 231 231 230 228
282 265 258 253 248 241 232 224 220 217 215 213 212 212 213 214 214 215 216 218 217 216 215 214 214 214 216 219 221 222 220 217 214 214 215 216 215 213 212 212 213 214 216 219 222 225 227 228 229 228 229 229 228 225 224 224 225 226 227 228 229 229 229 228 229 229 230 230 229
315 287 269 260 254 249 241 232 223 217 214 211 211 211 212 214 214 215 215 216 215 215 215 214 213 213 215 218 222 224 223 219 215 214 214 216 216 215 214 213 213 214 217 220 224 226 227 227 227 227 227 227 227 225 223 223 224 225 227 228 229 230 230 229 228 228 229 230 229
327 311 286 268 257 250 245 240 229 219 213 211 210 210 212 213 214 214 215 215 215 215 214 213 212 213 215 219 223 225 224 220 217 214 213 215 217 218 218 217 217 218 221 224 227 228 228 228 227 227 227 226 225 224 223 222 223 225 226 228 230 231 232 231 230 229 230 230 230
325 318 302 278 258 247 242 240 233 222 214 211 210 210 211 212 213 214 215 216 217 216 214 212 211 211 214 219 223 226 224 221 217 214 214 215 217 218 219 220 221 222 224 226 227 228 228 228 228 227 227 226 224 223 222 222 222 224 226 228 230 232 233 234 233 232 231 232 232
320 318 309 289 263 248 240 234 231 224 216 211 210 209 210 211 212 213 215 216 217 217 216 213 210 210 213 218 223 225 224 220 217 215 215 217 218 219 219 219 220 221 223 224 226 227 228 228 227 227 227 225 224 223 222 222 223 223 225 228 231 233 234 234 234 233 233 234 235
317 315 309 294 271 253 241 233 228 224 218 210 209 208 209 210 211 213 215 216 217 217 216 214 211 210 211 216 221 223 223 220 218 218 219 219 220 219 218 217 218 219 220 222 223 225 226 227 227 227 226 225 223 222 223 225 224 224 225 227 230 233 234 234 233 233 234 236 238
313 311 305 293 274 258 245 235 227 223 218 211 209 208 208 209 211 213 214 216 216 216 215 214 213 211 211 214 218 221 222 221 221 222 222 221 220 219 217 216 216 217 218 220 221 223 224 225 226 226 226 225 224 224 226 227 225 224 225 227 230 232 233 233 233 233 235 238 240
310 307 302 291 273 257 246 238 229 224 219 214 210 207 207 208 210 211 213 215 215 215 215 214 213 212 212 214 217 219 221 222 223 224 223 221 219 217 215 214 215 216 217 219 220 221 222 223 225 225 226 226 226 228 229 228 227 226 226 228 230 231 232 233 234 235 237 240 242
307 304 299 289 270 252 242 237 232 228 224 219 212 209 208 208 209 211 212 213 214 214 214 213 212 213 214 216 216 218 219 222 223 223 221 218 216 214 213 214 214 216 217 216 217 218 220 222 223 224 225 226 227 228 229 229 229 229 230 230 231 231 232 233 235 237 239 241 243
304 302 297 287 270 251 237 232 232 232 229 224 215 210 209 208 209 210 210 211 212 213 213 213 213 214 215 215 215 216 217 220 221 219 215 213 211 211 212 214 216 216 215 213 213 216 219 221 222 222 223 224 225 227 228 230 231 232 232 232 232 232 232 233 235 237 239 241 243
300 299 296 286 271 254 239 231 229 230 231 228 218 211 208 207 209 210 211 211 212 212 213 214 215 214 213 212 212 213 215 217 217 214 210 208 210 212 215 217 216 213 210 209 212 216 219 220 220 220 220 221 223 225 228 230 232 232 232 232 232 232 233 234 235 237 239 241 243
298 296 294 286 273 257 244 234 228 227 229 229 219 211 206 205 208 211 212 213 213 214 215 216 216 213 210 209 210 211 213 214 215 212 208 209 213 216 217 216 212 208 206 209 213 217 219 220 221 220 220 220 222 225 228 230 231 231 231 231 232 233 234 235 237 239 241 243 245
296 295 293 286 274 259 247 238 233 232 232 232 220 210 205 204 208 211 212 214 215 217 218 218 214 210 208 208 211 212 213 214 214 211 208 208 212 214 213 209 205 203 205 211 215 217 219 221 222 221 221 221 223 225 227 228 229 229 229 230 232 234 235 237 239 241 243 245 246
297 295 291 285 274 261 250 245 243 245 245 239 222 210 204 204 207 210 212 214 216 218 219 217 213 209 208 210 213 214 215 215 215 211 206 203 204 205 203 200 200 202 208 213 216 218 220 222 222 222 222 222 223 224 225 226 226 226 227 229 231 234 236 238 240 242 244 244 245
298 293 288 282 274 264 256 253 256 258 256 246 224 208 203 205 208 211 213 215 217 219 218 216 212 210 210 213 214 215 216 216 214 209 201 195 194 195 197 199 203 207 211 214 217 220 222 223 222 221 221 221 222 222 222 222 222 224 225 228 231 234 236 238 240 241 242 242 241
298 291 284 278 274 268 262 258 261 263 261 250 226 208 203 206 210 213 214 216 218 219 218 215 212 211 213 214 214 214 214 213 209 203 195 189 188 192 197 204 210 212 213 213 215 217 219 220 219 218 217 217 217 217 218 219 221 224 226 228 231 233 235 236 237 238 239 240 242
297 289 280 274 273 271 266 259 258 261 262 253 231 212 206 209 212 215 216 218 219 219 217 213 212 212 213 214 213 211 209 206 201 193 188 187 190 196 203 209 213 215 215 213 212 212 211 211 211 211 211 212 213 215 217 219 221 223 225 227 230 231 233 235 236 238 240 241 243
296 289 280 273 271 270 266 260 257 259 261 258 238 218 209 211 214 216 218 219 219 217 214 212 212 213 213 213 211 207 202 197 189 184 184 189 196 202 206 208 211 214 214 211 208 206 205 205 206 208 211 212 213 214 214 214 214 216 217 219 221 224 227 232 237 240 241 240 236
295 289 282 276 272 269 266 263 260 260 263 263 248 226 212 212 215 218 218 218 216 214 212 212 213 213 211 208 205 201 195 187 181 181 186 194 200 203 204 205 205 205 205 203 202 201 203 204 206 207 207 207 206 205 204 204 204 204 206 207 210 213 218 222 227 232 234 231 227
294 289 284 278 273 271 267 264 259 259 263 266 258 236 216 212 214 217 218 217 215 213 213 214 215 212 208 204 200 194 187 179 178 183 189 193 196 199 200 200 197 194 192 192 194 197 199 201 203 202 200 199 199 198 198 199 201 203 205 206 209 211 215 217 218 219 221 222 225
293 289 284 279 276 274 270 266 262 261 265 267 263 245 223 213 213 216 217 216 214 214 215 215 213 210 206 203 196 187 179 175 179 186 191 192 192 193 194 192 188 185 185 186 189 192 195 197 198 198 197 197 196 197 198 200 202 205 206 208 210 211 213 214 214 215 217 220 222
293 288 284 281 279 278 276 272 270 271 272 271 268 252 230 215 213 216 218 216 214 212 211 211 208 205 202 198 187 177 173 176 182 187 188 187 186 186 186 184 183 182 183 184 185 187 190 192 193 194 195 196 197 198 199 201 202 203 204 205 207 209 211 211 213 215 219 222 223
293 288 284 281 280 282 283 282 281 281 281 279 274 258 234 216 213 215 215 213 210 206 203 202 201 200 195 187 176 171 172 178 183 184 183 182 181 180 179 178 177 178 180 182 182 183 184 187 189 191 192 193 195 196 197 197 198 198 199 200 202 205 208 211 214 218 222 224 225
294 289 283 279 279 282 285 287 286 284 282 279 276 261 237 216 209 207 207 203 200 198 196 195 195 193 186 176 170 170 174 179 181 181 180 179 179 177 174 170 170 172 176 180 182 183 185 187 189 190 191 190 191 191 191 192 193 194 195 198 201 204 208 212 216 219 223 225 227
295 290 284 278 275 276 280 283 283 279 275 273 270 258 237 214 202 199 199 196 194 193 193 193 190 184 175 169 169 172 176 178 178 178 179 180 179 176 171 167 166 168 174 180 185 187 188 189 191 193 194 192 190 189 190 191 192 194 197 200 204 209 213 217 220 222 223 224 226
293 289 283 277 272 270 271 275 275 272 268 265 261 251 236 215 201 196 197 195 193 192 192 190 183 175 169 167 170 174 176 177 177 178 180 181 180 177 173 169 167 168 173 181 186 189 190 190 192 195 197 196 193 191 192 193 195 197 200 204 208 213 218 222 224 225 224 223 224
289 285 280 274 267 263 263 268 273 272 264 254 248 241 230 213 201 197 197 195 193 192 189 183 174 169 168 169 171 172 173 175 177 178 180 181 180 179 176 173 169 170 175 181 186 189 190 189 192 196 200 200 197 196 195 197 198 200 203 207 210 215 220 223 224 223 222 220 220
283 279 274 268 262 258 258 267 280 277 260 240 231 225 216 205 197 195 196 195 193 189 183 173 167 166 167 167 166 164 164 167 172 174 176 178 179 180 178 175 172 173 176 181 185 187 188 189 192 197 201 202 202 200 199 199 200 203 206 209 211 215 218 220 221 220 218 217 216
276 272 267 261 256 253 257 271 277 268 249 224 210 201 196 191 189 189 191 193 190 184 175 167 163 162 163 162 160 159 160 162 166 170 171 173 176 179 180 177 174 174 176 179 182 184 186 188 192 196 200 203 204 204 203 202 203 204 207 209 210 211 213 214 214 213 211 208 207
274 269 264 258 255 255 259 263 256 244 225 204 190 183 181 179 177 177 179 182 178 174 169 163 160 159 160 161 159 158 160 162 165 168 170 171 174 177 178 176 173 172 173 175 177 180 183 185 188 192 196 200 202 202 202 202 204 205 205 206 206 204 202 201 202 199 194 191 188
281 276 272 268 264 260 250 232 211 198 191 186 184 181 179 177 170 166 165 166 164 164 163 160 157 158 160 161 160 162 163 164 164 166 169 170 172 173 174 173 170 168 167 168 171 174 176 177 179 182 188 192 195 195 196 198 200 200 198 198 197 194 190 185 182 178 173 169 165
Height
1375 1376 1377 1378 1379 1380 1381 1382 1383 1385 1385 1386 1387 1388 1389 1390 1390 1391 1392 1393 1394 1395 1395 1396 1398 1399 1400 1401 1402 1404 1405 1406 1408 1410 1411 1412 1413 1413 1414 1415 1416 1418 1419 1421 1422 1424 1426 1428 1429 1431 1432 1433 1435 1436 1437 1438 1439 1440 1442 1443 1444 1445 1446 1447 1448 1449 1450 1450 1451
1372 1373 1374 1375 1376 1377 1379 1380 1381 1382 1383 1384 1385 1385 1386 1387 1388 1389 1390 1391 1392 1393 1394 1395 1396 1397 1398 1399 1400 1402 1403 1405 1406 1408 1409 1410 1411 1412 1413 1414 1415 1416 1418 1420 1421 1422 1424 1425 1427 1429 1430 1432 1433 1435 1436 1437 1438 1439 1440 1441 1443 1444 1445 1445 1446 1447 1448 1449 1449
1369 1370 1371 1372 1374 1375 1376 1377 1379 1380 1381 1382 1383 1384 1384 1385 1386 1387 1388 1389 1390 1392 1392 1393 1394 1395 1396 1397 1398 1400 1401 1403 1404 1406 1407 1409 1410 1410 1411 1412 1413 1415 1416 1418 1420 1421 1422 1424 1425 1427 1428 1430 1431 1433 1434 1435 1437 1438 1439 1440 1441 1442 1443 1444 1445 1445 1446 1447 1447
1366 1367 1368 1369 1370 1371 1373 1374 1375 1377 1378 1380 1380 1381 1382 1383 1384 1385 1386 1387 1389 1390 1390 1391 1391 1392 1394 1395 1396 1398 1399 1401 1402 1404 1405 1407 1408 1409 1409 1410 1411 1413 1415 1417 1418 1420 1421 1422 1424 1425 1427 1428 1430 1431 1432 1434 1435 1436 1438 1439 1440 1440 1441 1442 1443 1444 1445 1445 1446
1365 1365 1366 1366 1367 1368 1370 1371 1373 1374 1375 1377 1378 1379 1380 1381 1382 1383 1384 1385 1386 1387 1388 1389 1389 1390 1392 1393 1395 1396 1397 1399 1400 1401 1403 1405 1407 1407 1408 1409 1410 1411 1413 1415 1417 1418 1419 1421 1422 1424 1425 1427 1428 1430 1431 1432 1434 1435 1436 1437 1438 1439 1440 1441 1441 1442 1443 1444 1445
1366 1366 1365 1365 1365 1366 1367 1369 1370 1371 1373 1375 1376 1377 1377 1378 1379 1380 1381 1382 1384 1385 1386 1387 1387 1388 1390 1391 1393 1394 1395 1397 1398 1399 1400 1403 1405 1406 1407 1407 1409 1410 1411 1413 1415 1416 1417 1419 1420 1422 1424 1425 1427 1429 1430 1431 1432 1434 1435 1436 1437 1438 1439 1440 1440 1441 1442 1443 1444
1365 1366 1367 1366 1365 1364 1365 1366 1368 1369 1370 1372 1373 1374 1375 1376 1377 1378 1379 1380 1381 1383 1384 1385 1385 1386 1387 1389 1391 1392 1394 1395 1396 1397 1398 1399 1401 1403 1405 1406 1407 1409 1410 1411 1412 1414 1416 1417 1419 1420 1422 1424 1425 1427 1429 1430 1431 1432 1434 1435 1435 1436 1437 1438 1439 1440 1440 1441 1442
1362 1363 1365 1366 1365 1365 1364 1364 1365 1367 1368 1369 1370 1371 1373 1374 1375 1376 1377 1378 1380 1381 1382 1383 1383 1384 1385 1387 1388 1390 1392 1394 1395 1395 1396 1396 1398 1400 1403 1405 1406 1407 1408 1409 1410 1412 1414 1415 1417 1419 1420 1422 1424 1425 1427 1428 1430 1431 1432 1433 1434 1435 1436 1437 1438 1439 1439 1440 1441
1361 1361 1362 1363 1365 1365 1365 1364 1364 1365 1366 1367 1368 1370 1371 1372 1373 1374 1375 1377 1378 1379 1380 1380 1381 1382 1383 1385 1386 1388 1390 1392 1393 1394 1395 1395 1396 1397 1400 1402 1404 1405 1406 1407 1409 1410 1412 1414 1415 1417 1418 1420 1422 1424 1425 1427 1428 1430 1431 1432 1433 1434 1435 1435 1436 1437 1438 1439 1440
1361 1361 1361 1361 1361 1363 1365 1365 1363 1363 1364 1365 1367 1368 1369 1370 1371 1373 1374 1375 1376 1377 1378 1379 1380 1381 1382 1383 1384 1386 1388 1390 1391 1393 1394 1394 1395 1396 1397 1399 1401 1403 1404 1405 1407 1409 1410 1412 1414 1415 1416 1418 1420 1422 1424 1425 1426 1428 1429 1430 1431 1432 1433 1434 1435 1436 1436 1437 1438
1360 1360 1360 1360 1360 1361 1363 1364 1364 1363 1363 1364 1365 1367 1368 1369 1370 1371 1372 1374 1375 1376 1377 1378 1379 1380 1380 1381 1382 1384 1385 1388 1390 1391 1392 1393 1394 1395 1396 1397 1399 1400 1402 1404 1405 1407 1409 1410 1412 1413 1415 1416 1419 1420 1422 1423 1425 1426 1427 1429 1430 1431 1432 1433 1433 1434 1435 1436 1436
1360 1360 1359 1359 1359 1360 1361 1362 1363 1363 1362 1363 1364 1365 1367 1368 1369 1370 1371 1373 1373 1375 1375 1376 1377 1378 1379 1380 1380 1381 1383 1385 1387 1389 1390 1392 1393 1394 1395 1396 1398 1399 1400 1402 1404 1405 1407 1409 1410 1412 1413 1415 1417 1419 1420 1422 1423 1425 1426 1427 1428 1429 1430 1431 1432 1433 1434 1434 1435
1359 1358 1358 1358 1358 1359 1360 1360 1362 1363 1362 1362 1363 1364 1365 1366 1368 1369 1370 1371 1372 1374 1375 1375 1376 1377 1378 1378 1379 1380 1382 1384 1385 1387 1389 1390 1392 1393 1394 1395 1397 1398 1399 1401 1402 1404 1405 1407 1409 1410 1412 1414 1415 1417 1418 1420 1421 1423 1424 1425 1426 1427 1428 1429 1430 1431 1432 1433 1434
1358 1357 1357 1357 1358 1359 1359 1360 1360 1361 1362 1361 1362 1363 1364 1365 1366 1368 1369 1370 1371 1372 1374 1374 1375 1376 1376 1376 1377 1378 1380 1382 1383 1385 1386 1388 1390 1391 1393 1394 1395 1397 1398 1399 1400 1402 1404 1405 1407 1409 1410 1412 1413 1415 1417 1418 1420 1421 1422 1423 1424 1425 1426 1427 1429 1430 1431 1432 1433
1356 1356 1356 1356 1357 1357 1358 1359 1359 1360 1361 1361 1361 1362 1363 1364 1365 1366 1367 1368 1370 1371 1372 1373 1374 1375 1375 1375 1376 1377 1379 1380 1382 1384 1385 1387 1388 1389 1390 1392 1393 1395 1396 1397 1399 1400 1402 1404 1405 1407 1409 1410 1412 1413 1415 1417 1418 1420 1421 1421 1422 1423 1425 1426 1427 1429 1430 1430 1431
1355 1355 1355 1355 1355 1356 1357 1357 1358 1358 1359 1360 1360 1360 1361 1362 1363 1364 1365 1367 1368 1369 1370 1371 1372 1373 1374 1374 1375 1376 1378 1379 1381 1382 1384 1385 1386 1387 1388 1390 1391 1392 1394 1395 1397 1399 1400 1402 1404 1405 1407 1409 1410 1412 1414 1415 1417 1418 1419 1420 1421 1422 1423 1424 1426 1427 1428 1429 1430
1353 1353 1353 1353 1353 1354 1355 1356 1357 1357 1357 1359 1360 1359 1359 1360 1361 1362 1363 1365 1366 1367 1368 1369 1370 1371 1372 1373 1374 1375 1376 1378 1380 1381 1382 1383 1384 1385 1386 1388 1389 1390 1392 1394 1395 1397 1399 1400 1402 1404 1405 1407 1409 1411 1413 1414 1415 1417 1418 1419 1420 1421 1422 1423 1424 1425 1427 1428 1428
1352 1352 1352 1352 1352 1352 1353 1355 1356 1356 1356 1357 1358 1358 1357 1358 1359 1360 1361 1362 1364 1365 1366 1367 1369 1370 1371 1372 1373 1374 1375 1376 1378 1379 1380 1381 1382 1384 1385 1386 1388 1390 1391 1392 1394 1396 1398 1399 1401 1403 1405 1406 1408 1410 1411 1413 1414 1415 1416 1417 1419 1420 1421 1422 1423 1424 1425 1426 1427
1350 1350 1350 1350 1350 1351 1352 1353 1354 1355 1355 1356 1357 1356 1355 1356 1357 1358 1359 1360 1362 1363 1364 1366 1367 1369 1370 1371 1372 1373 1374 1375 1376 1377 1378 1380 1381 1382 1384 1385 1387 1388 1390 1391 1393 1395 1397 1398 1400 1402 1403 1405 1407 1408 1410 1411 1412 1413 1415 1416 1417 1419 1420 1421 1422 1423 1424 1425 1425
1350 1349 1349 1349 1349 1349 1350 1351 1352 1353 1354 1355 1356 1355 1355 1355 1355 1356 1357 1359 1360 1361 1363 1365 1366 1368 1369 1370 1371 1372 1373 1374 1375 1376 1377 1378 1380 1381 1383 1385 1386 1387 1388 1390 1392 1394 1395 1397 1398 1400 1402 1403 1405 1406 1408 1409 1410 1412 1413 1415 1416 1417 1419 1420 1421 1422 1423 1423 1424
1349 1349 1348 1348 1347 1347 1348 1349 1350 1352 1353 1354 1355 1355 1353 1354 1354 1355 1355 1357 1358 1360 1361 1363 1365 1366 1367 1368 1369 1370 1372 1373 1374 1375 1376 1377 1378 1380 1381 1383 1384 1385 1387 1389 1391 1392 1394 1395 1397 1398 1400 1401 1403 1405 1406 1408 1409 1410 1412 1414 1415 1416 1418 1419 1420 1420 1421 1422 1422
1348 1348 1347 1347 1347 1346 1346 1347 1348 1350 1351 1352 1354 1354 1352 1352 1353 1353 1354 1355 1357 1359 1360 1362 1364 1365 1365 1367 1368 1369 1370 1372 1373 1374 1375 1376 1377 1379 1380 1381 1383 1384 1386 1388 1389 1391 1392 1394 1395 1396 1398 1400 1401 1403 1405 1406 1408 1410 1411 1413 1414 1415 1416 1417 1418 1419 1420 1420 1421
1346 1346 1346 1346 1346 1346 1345 1345 1346 1347 1348 1350 1351 1352 1352 1352 1352 1353 1353 1354 1355 1357 1359 1361 1362 1363 1364 1365 1367 1368 1369 1370 1372 1373 1374 1375 1376 1378 1379 1380 1382 1384 1385 1386 1388 1389 1391 1392 1394 1395 1397 1399 1400 1402 1403 1405 1407 1408 1410 1411 1413 1414 1415 1415 1416 1417 1418 1418 1419
1345 1345 1345 1345 1345 1345 1345 1345 1345 1346 1347 1348 1350 1351 1351 1351 1351 1351 1352 1353 1354 1356 1358 1359 1361 1362 1363 1364 1365 1367 1368 1369 1371 1372 1373 1374 1376 1377 1378 1380 1381 1383 1384 1385 1386 1388 1389 1390 1392 1394 1395 1397 1399 1401 1403 1404 1406 1407 1409 1410 1411 1412 1413 1414 1415 1415 1416 1417 1418
1344 1344 1344 1344 1344 1344 1344 1344 1345 1345 1346 1347 1349 1350 1350 1350 1350 1350 1351 1352 1353 1355 1356 1358 1359 1360 1361 1363 1364 1365 1366 1367 1369 1371 1372 1373 1375 1376 1377 1379 1380 1381 1383 1384 1385 1387 1388 1389 1391 1393 1395 1397 1399 1400 1402 1404 1405 1406 1407 1409 1410 1410 1411 1412 1413 1414 1415 1416 1417
1343 1343 1343 1343 1343 1343 1343 1343 1343 1344 1345 1345 1347 1348 1348 1347 1348 1348 1349 1350 1351 1353 1355 1356 1357 1359 1360 1361 1362 1364 1365 1366 1368 1370 1371 1372 1374 1376 1377 1378 1379 1380 1382 1384 1385 1386 1387 1389 1391 1393 1395 1396 1398 1400 1401 1403 1404 1405 1406 1407 1408 1409 1410 1411 1412 1413 1414 1415 1416
1342 1341 1341 1341 1341 1341 1342 1342 1342 1342 1343 1344 1345 1346 1346 1345 1346 1347 1348 1349 1350 1352 1353 1355 1356 1357 1359 1360 1361 1362 1364 1365 1367 1368 1370 1372 1374 1375 1376 1377 1378 1379 1381 1383 1384 1386 1387 1389 1391 1392 1394 1396 1397 1399 1400 1401 1402 1404 1405 1406 1407 1408 1409 1410 1411 1412 1414 1415 1416
1340 1340 1340 1340 1340 1340 1340 1340 1340 1341 1342 1342 1343 1345 1345 1344 1344 1345 1346 1347 1349 1350 1352 1354 1355 1356 1357 1359 1360 1361 1363 1364 1366 1368 1370 1372 1374 1375 1376 1376 1377 1378 1380 1382 1384 1385 1387 1389 1390 1392 1394 1395 1397 1398 1400 1401 1402 1404 1405 1406 1407 1409 1409 1410 1411 1412 1413 1414 1415
1339 1338 1338 1338 1338 1338 1338 1339 1339 1339 1340 1340 1341 1343 1344 1342 1342 1343 1345 1346 1347 1349 1350 1352 1354 1355 1356 1357 1359 1360 1362 1364 1365 1368 1370 1372 1374 1375 1375 1375 1376 1378 1380 1381 1383 1385 1386 1388 1390 1391 1393 1395 1396 1397 1398 1400 1401 1402 1403 1404 1405 1406 1407 1408 1410 1411 1412 1412 1413
1337 1337 1336 1336 1336 1336 1336 1337 1337 1338 1338 1338 1339 1341 1342 1341 1340 1341 1343 1344 1345 1347 1349 1351 1352 1354 1355 1356 1358 1360 1361 1364 1366 1368 1370 1372 1373 1373 1374 1374 1375 1377 1379 1381 1383 1384 1385 1387 1388 1390 1391 1392 1393 1394 1395 1396 1398 1399 1400 1402 1403 1405 1406 1407 1408 1409 1410 1411 1413
1335 1335 1335 1334 1334 1334 1335 1335 1335 1336 1336 1337 1337 1339 1340 1340 1339 1339 1341 1342 1344 1346 1348 1349 1350 1352 1354 1355 1358 1359 1361 1364 1366 1368 1369 1369 1370 1370 1371 1373 1375 1376 1378 1380 1381 1382 1384 1385 1386 1388 1389 1390 1392 1393 1395 1396 1397 1399 1400 1401 1403 1404 1405 1406 1407 1408 1409 1410 1411
1334 1333 1333 1333 1332 1333 1333 1333 1334 1334 1335 1335 1336 1338 1339 1338 1336 1337 1339 1341 1343 1345 1346 1347 1349 1351 1354 1356 1357 1358 1360 1363 1364 1365 1366 1367 1368 1369 1370 1372 1374 1376 1377 1379 1380 1381 1382 1384 1385 1387 1388 1390 1391 1392 1394 1395 1396 1398 1399 1400 1402 1403 1404 1405 1406 1407 1408 1409 1409
1331 1331 1331 1331 1331 1331 1331 1332 1332 1333 1334 1335 1335 1336 1338 1337 1335 1336 1338 1340 1342 1344 1345 1347 1349 1351 1352 1354 1354 1355 1358 1360 1362 1363 1365 1366 1367 1368 1369 1371 1373 1375 1377 1378 1379 1380 1381 1383 1384 1386 1387 1389 1390 1391 1393 1394 1396 1397 1399 1400 1401 1402 1403 1404 1405 1406 1406 1407 1408
1330 1329 1329 1330 1330 1330 1330 1330 1331 1331 1332 1333 1334 1335 1337 1337 1335 1335 1337 1339 1340 1341 1342 1345 1346 1348 1350 1350 1351 1353 1355 1358 1360 1362 1363 1365 1366 1367 1368 1370 1372 1375 1376 1377 1378 1380 1381 1382 1384 1385 1386 1388 1390 1391 1392 1394 1395 1396 1398 1399 1400 1401 1402 1403 1404 1405 1405 1406 1407
1327 1327 1327 1328 1328 1328 1329 1329 1329 1330 1330 1331 1332 1335 1337 1335 1332 1332 1334 1335 1336 1338 1340 1343 1345 1346 1347 1348 1350 1352 1355 1357 1359 1361 1363 1364 1365 1366 1368 1369 1371 1373 1375 1377 1378 1379 1380 1381 1383 1384 1385 1387 1389 1390 1391 1393 1394 1395 1397 1398 1399 1400 1401 1402 1403 1404 1404 1405 1406
1325 1325 1325 1325 1326 1326 1327 1327 1328 1328 1328 1329 1332 1336 1336 1330 1329 1330 1331 1333 1334 1337 1340 1342 1343 1344 1344 1346 1349 1352 1355 1357 1359 1360 1362 1363 1365 1366 1367 1369 1370 1372 1374 1376 1377 1378 1380 1380 1382 1383 1385 1386 1387 1389 1390 1392 1393 1394 1395 1397 1398 1399 1400 1401 1402 1403 1403 1404 1405
1323 1323 1323 1324 1324 1325 1325 1325 1326 1326 1327 1328 1332 1335 1333 1329 1327 1327 1329 1331 1333 1336 1339 1340 1340 1340 1342 1345 1348 1351 1354 1356 1358 1360 1361 1363 1364 1365 1367 1368 1369 1371 1373 1375 1377 1378 1379 1380 1381 1383 1384 1385 1386 1388 1389 1391 1392 1393 1395 1396 1397 1398 1399 1400 1400 1401 1402 1403 1404
1321 1321 1321 1322 1322 1323 1324 1324 1325 1326 1326 1327 1330 1331 1331 1328 1325 1326 1328 1330 1332 1335 1337 1338 1337 1338 1341 1344 1347 1350 1352 1355 1357 1359 1360 1362 1364 1365 1366 1367 1369 1371 1373 1374 1376 1377 1378 1380 1381 1382 1384 1385 1386 1387 1388 1390 1391 1392 1393 1395 1396 1397 1398 1398 1399 1400 1401 1402 1403
1319 1319 1320 1320 1321 1322 1323 1325 1326 1325 1324 1325 1327 1329 1328 1327 1325 1326 1327 1328 1330 1332 1334 1334 1335 1336 1340 1342 1345 1347 1350 1352 1355 1357 1359 1361 1363 1364 1365 1367 1369 1370 1372 1374 1375 1376 1378 1379 1380 1382 1383 1384 1385 1386 1387 1389 1390 1391 1392 1394 1395 1395 1396 1397 1398 1399 1400 1401 1402
1316 1317 1318 1319 1320 1321 1323 1326 1324 1322 1322 1323 1325 1326 1326 1326 1326 1326 1326 1327 1329 1330 1331 1330 1332 1335 1338 1340 1343 1345 1348 1351 1353 1356 1358 1360 1362 1364 1365 1367 1369 1370 1372 1374 1375 1376 1378 1379 1380 1381 1383 1384 1385 1385 1386 1388 1389 1390 1391 1392 1394 1395 1395 1396 1398 1399 1399 1400 1401
1315 1315 1316 1318 1320 1321 1323 1323 1321 1320 1321 1322 1323 1324 1325 1327 1327 1326 1326 1326 1327 1328 1328 1328 1330 1333 1336 1339 1342 1345 1348 1350 1353 1355 1357 1359 1361 1363 1365 1367 1368 1370 1371 1373 1375 1376 1378 1379 1380 1381 1382 1383 1384 1385 1386 1387 1388 1389 1390 1392 1393 1394 1395 1396 1397 1398 1399 1400 1401